Vorticity
4 5 5 4 -1 3 8 6 9 5 1 3 5 3 6 -2 8 5 10 9 8 5 6 6 6 6 5 5 4 5 4 4 3 4 4 3 4 4 6 4 4 4 4 4 3 2 1 1 2
4 5 5 6 3 5 10 8 7 6 5 7 6 -1 1 12 11 14 11 9 8 6 6 5 5 6 3 3 4 4 5 4 3 4 4 4 4 5 4 4 4 4 4 3 2 2 1 2 3
4 5 1 6 5 10 13 6 7 4 4 4 6 3 1 11 5 7 8 8 6 7 7 3 4 5 5 4 4 4 3 4 4 4 5 6 7 7 8 6 4 3 3 2 2 2 2 3 4
4 5 3 1 3 -2 10 10 2 8 8 8 2 8 7 6 9 8 7 7 7 6 9 6 4 4 5 4 3 4 4 4 5 5 5 4 5 6 8 10 8 4 3 3 3 2 2 4 5
6 1 4 5 6 8 3 1 8 10 8 9 5 8 9 9 8 8 7 7 7 6 7 6 6 5 6 4 2 5 4 4 4 4 5 4 4 5 6 6 9 9 6 5 4 4 5 5 6
8 -9 9 4 4 5 3 10 6 2 7 8 5 8 7 6 7 8 7 6 7 7 6 7 7 7 6 7 5 4 7 4 5 5 6 5 5 6 6 6 6 7 7 6 6 6 6 7 7
-13 -1 7 4 7 2 6 6 9 5 9 10 3 5 8 7 6 7 7 6 6 7 6 6 7 8 8 7 7 4 1 6 7 6 6 6 6 6 6 6 6 6 7 6 6 6 7 7 7
-12 10 1 9 6 6 2 5 3 5 7 8 3 4 9 6 7 6 8 8 7 7 7 7 6 5 6 7 8 4 5 5 5 5 6 6 5 5 6 6 7 7 7 7 7 7 6 6 6
7 -13 6 2 6 -1 9 4 10 6 8 6 5 5 9 7 8 8 8 8 7 8 8 7 6 6 5 6 6 8 6 5 5 5 5 5 6 6 6 5 6 6 6 6 6 6 5 5 5
4 -6 3 5 2 11 10 6 6 6 5 6 7 3 5 6 7 5 7 7 6 6 7 7 6 6 5 5 5 5 5 5 5 5 5 5 6 6 6 6 7 6 6 5 5 4 4 4 5
6 -2 -5 12 -7 -8 13 1 6 5 9 8 7 2 3 5 6 6 5 5 5 5 6 7 7 6 5 5 5 5 5 5 4 4 5 5 5 5 6 6 6 6 6 7 7 6 5 5 5
-3 -5 1 10 8 9 5 4 6 4 10 0 -0 3 3 4 6 7 7 6 8 8 6 7 7 7 6 5 5 5 5 5 5 5 5 5 5 5 5 6 6 6 6 6 6 6 5 5 5
10 10 -1 9 3 12 4 4 8 5 5 9 5 5 6 4 4 6 5 6 6 7 8 7 7 6 6 5 5 5 5 4 4 4 5 6 6 6 5 5 5 6 6 6 5 5 5 5 5
26 4 11 4 7 10 7 5 7 3 4 5 5 7 6 2 3 5 6 8 8 6 7 6 6 6 7 6 5 5 5 4 4 5 6 6 6 6 6 6 5 5 5 5 5 5 5 5 5
-2 14 -1 9 10 8 6 9 4 4 7 4 7 7 4 7 4 3 4 5 6 6 5 6 5 6 7 7 6 5 5 5 5 6 6 6 5 5 6 6 6 6 6 6 6 5 5 5 5
4 13 7 20 7 6 4 17 5 2 2 7 12 5 9 4 7 5 3 4 5 7 10 6 6 6 6 6 7 6 6 6 6 6 6 6 6 6 6 6 6 6 6 6 6 6 6 6 6
17 16 4 7 9 8 -3 8 -0 15 3 6 5 8 11 5 6 6 5 4 4 6 7 10 7 6 5 5 6 6 6 6 6 6 6 6 7 7 7 7 7 7 7 8 7 7 6 6 6
7 -2 12 -14 28 2 11 -18 11 10 11 9 5 8 4 7 9 5 3 3 5 5 7 8 8 7 6 6 5 5 5 5 6 6 6 6 6 7 7 8 8 8 7 7 8 8 8 7 7
3 9 8 13 -0 21 4 3 9 7 5 12 14 8 6 6 11 12 7 5 6 6 7 8 8 9 8 8 8 7 6 5 5 5 5 6 6 6 6 6 6 6 7 7 8 8 8 9 9
11 11 -5 12 8 18 18 11 12 7 7 5 3 6 8 8 5 6 7 10 8 6 7 8 8 7 8 8 6 5 5 4 4 4 5 6 5 5 5 5 5 6 6 6 7 7 8 9 9
4 6 6 -12 16 4 -2 24 5 7 6 7 8 7 7 6 6 6 8 10 10 7 8 8 7 6 7 7 5 5 5 5 5 5 6 6 5 5 5 5 5 6 6 7 8 8 7 6 6
-4 10 13 5 22 -4 7 19 15 10 8 4 3 4 4 6 7 7 5 3 5 8 9 8 8 6 6 6 7 5 4 4 4 6 6 7 6 6 7 8 9 9 8 9 9 8 7 8 9
12 21 -9 21 13 8 32 1 -3 20 16 9 7 4 4 9 10 11 8 9 7 4 3 4 4 6 6 7 6 5 6 3 6 9 8 6 4 5 11 15 14 12 11 9 8 8 10 9 7
1 2 17 -1 0 16 0 -15 46 4 0 22 2 3 3 7 12 15 9 12 16 13 6 5 6 7 10 9 7 6 4 8 7 7 4 4 9 14 11 12 10 8 8 8 8 7 5 2 2
4 11 7 12 10 4 24 19 -31 20 20 7 14 18 18 15 15 9 3 8 15 18 14 9 7 7 6 8 7 7 8 6 5 4 4 9 10 10 10 8 8 8 7 5 2 1 1 2 2
4 -16 -22 -0 10 4 9 19 12 14 -23 15 13 8 9 9 12 1 2 7 11 14 14 11 8 7 6 7 8 7 6 5 4 4 6 9 12 11 10 8 7 4 2 2 2 2 1 1 3
21 9 -17 -9 29 20 -7 20 -4 20 17 -8 -23 16 4 4 4 2 5 10 12 11 12 12 11 10 9 9 8 6 5 4 6 6 9 13 11 7 4 3 1 1 1 0 -0 1 5 9 11
21 10 4 3 6 9 31 7 -37 34 -1 -6 5 17 -2 3 8 8 10 11 10 9 10 10 11 12 12 11 9 7 6 7 9 9 14 9 7 4 2 0 0 0 0 2 6 10 13 12 12
-1 23 -7 6 -32 1 2 12 16 25 10 48 13 8 13 10 8 9 8 8 9 9 9 9 10 11 12 12 12 11 10 11 14 12 8 5 3 2 1 1 1 1 3 8 11 12 10 10 9
31 18 -12 -19 32 6 8 27 17 27 13 -0 22 15 14 11 8 7 7 7 8 8 7 8 9 9 9 9 10 12 13 10 8 6 4 4 2 2 2 1 2 4 10 9 8 7 7 8 8
Height
3141 3143 3145 3147 3153 3149 3145 3148 3149 3150 3151 3150 3151 3154 3155 3154 3155 3159 3156 3156 3157 3157 3158 3159 3160 3160 3161 3162 3163 3165 3165 3166 3167 3168 3168 3168 3169 3169 3170 3170 3170 3170 3171 3171 3171 3171 3171 3171 3171
3140 3143 3146 3147 3149 3144 3145 3148 3149 3150 3148 3150 3151 3153 3155 3153 3154 3155 3156 3156 3157 3158 3159 3160 3161 3162 3163 3164 3165 3166 3167 3168 3168 3169 3169 3169 3170 3170 3171 3171 3172 3172 3172 3172 3172 3172 3172 3172 3172
3140 3142 3146 3148 3146 3142 3144 3147 3148 3147 3148 3150 3151 3152 3153 3154 3154 3155 3155 3156 3158 3158 3159 3160 3162 3163 3164 3165 3166 3167 3168 3169 3169 3169 3170 3170 3170 3171 3171 3172 3173 3173 3173 3173 3173 3173 3173 3173 3173
3139 3143 3146 3146 3144 3145 3146 3147 3147 3147 3148 3149 3151 3152 3154 3154 3154 3155 3156 3157 3157 3158 3159 3161 3163 3164 3165 3166 3167 3168 3169 3170 3170 3170 3171 3171 3171 3172 3172 3172 3173 3174 3174 3174 3174 3174 3174 3174 3174
3137 3141 3144 3144 3143 3144 3145 3146 3147 3148 3149 3150 3151 3152 3153 3154 3155 3155 3157 3158 3159 3160 3161 3163 3164 3164 3166 3167 3168 3169 3170 3171 3171 3171 3171 3171 3172 3172 3172 3173 3173 3174 3174 3174 3175 3175 3175 3175 3175
3136 3140 3142 3141 3143 3144 3145 3145 3146 3149 3149 3150 3152 3152 3153 3154 3155 3156 3157 3158 3160 3161 3163 3164 3165 3166 3167 3168 3170 3171 3171 3171 3171 3171 3172 3172 3172 3172 3172 3173 3173 3174 3174 3175 3175 3175 3175 3175 3175
3133 3138 3139 3140 3141 3143 3143 3144 3146 3148 3149 3150 3151 3154 3153 3154 3155 3156 3157 3158 3159 3161 3163 3164 3165 3166 3168 3169 3170 3171 3171 3172 3172 3172 3172 3172 3172 3172 3172 3173 3173 3174 3175 3175 3175 3176 3176 3176 3176
3131 3136 3138 3139 3140 3143 3141 3143 3145 3147 3149 3149 3151 3153 3152 3153 3155 3156 3157 3159 3160 3162 3163 3164 3165 3166 3167 3169 3170 3171 3171 3172 3171 3172 3172 3172 3172 3173 3173 3174 3174 3174 3175 3175 3176 3176 3176 3176 3176
3130 3133 3134 3137 3139 3141 3140 3142 3144 3145 3146 3148 3150 3150 3151 3153 3154 3156 3157 3159 3160 3161 3162 3164 3165 3166 3167 3168 3170 3171 3172 3172 3172 3172 3172 3172 3173 3173 3174 3174 3175 3175 3175 3176 3176 3176 3176 3176 3176
3126 3129 3132 3136 3138 3139 3140 3141 3143 3145 3145 3147 3148 3149 3150 3152 3153 3155 3156 3158 3159 3160 3161 3163 3164 3166 3167 3168 3169 3170 3171 3172 3172 3173 3173 3173 3173 3173 3174 3175 3175 3175 3175 3176 3176 3176 3176 3176 3176
3123 3125 3131 3131 3133 3136 3138 3140 3141 3143 3145 3147 3148 3148 3150 3151 3153 3154 3155 3156 3158 3159 3161 3162 3164 3165 3166 3167 3168 3170 3170 3171 3172 3172 3173 3173 3173 3174 3174 3175 3176 3176 3176 3176 3177 3177 3176 3176 3176
3119 3123 3124 3127 3130 3133 3136 3138 3140 3142 3143 3143 3145 3146 3148 3150 3152 3153 3154 3156 3157 3159 3160 3162 3163 3164 3165 3167 3168 3169 3170 3171 3171 3172 3172 3173 3174 3174 3175 3176 3176 3176 3176 3176 3176 3176 3176 3176 3176
3115 3118 3122 3124 3127 3130 3133 3136 3138 3139 3140 3142 3144 3145 3147 3148 3150 3151 3152 3154 3156 3157 3159 3160 3162 3163 3164 3165 3167 3168 3169 3170 3170 3171 3172 3173 3174 3174 3175 3175 3175 3175 3175 3175 3175 3175 3175 3175 3175
3112 3114 3118 3121 3124 3127 3130 3132 3135 3136 3138 3140 3142 3144 3145 3147 3148 3150 3151 3152 3154 3155 3157 3159 3160 3162 3164 3165 3166 3167 3168 3168 3170 3171 3172 3173 3173 3173 3174 3174 3174 3174 3174 3174 3174 3174 3174 3174 3173
3108 3112 3115 3117 3120 3123 3126 3129 3131 3132 3136 3138 3139 3141 3143 3145 3146 3148 3149 3150 3152 3154 3156 3157 3159 3160 3162 3164 3165 3166 3167 3168 3169 3170 3170 3171 3171 3172 3172 3172 3173 3173 3173 3173 3173 3172 3172 3172 3172
3106 3109 3110 3113 3116 3119 3124 3126 3128 3130 3132 3134 3136 3138 3140 3142 3144 3146 3147 3149 3150 3152 3154 3156 3157 3159 3160 3162 3163 3165 3166 3167 3168 3169 3170 3170 3170 3171 3171 3171 3171 3171 3171 3171 3171 3171 3170 3170 3169
3100 3102 3107 3109 3113 3115 3119 3124 3122 3126 3129 3131 3133 3135 3137 3139 3141 3143 3144 3146 3148 3150 3152 3154 3155 3156 3158 3160 3162 3163 3165 3166 3167 3168 3168 3168 3169 3169 3169 3169 3169 3169 3169 3169 3168 3168 3167 3167 3166
3091 3099 3103 3106 3108 3110 3114 3119 3117 3121 3124 3126 3129 3131 3133 3135 3137 3139 3141 3143 3145 3147 3149 3151 3153 3154 3156 3158 3159 3161 3162 3163 3164 3165 3165 3166 3166 3167 3167 3166 3166 3166 3166 3165 3165 3165 3164 3163 3162
3093 3097 3100 3105 3103 3108 3111 3114 3114 3117 3119 3122 3124 3127 3129 3131 3133 3136 3138 3140 3142 3144 3146 3148 3150 3152 3154 3156 3157 3158 3159 3160 3161 3161 3162 3163 3163 3163 3163 3163 3163 3163 3163 3163 3162 3162 3162 3160 3159
3089 3093 3098 3097 3100 3105 3108 3110 3111 3112 3115 3117 3120 3122 3125 3127 3130 3132 3134 3137 3138 3141 3143 3144 3146 3148 3150 3152 3153 3154 3155 3156 3157 3158 3159 3160 3160 3161 3161 3160 3160 3160 3160 3159 3158 3158 3157 3157 3156
3085 3088 3093 3097 3098 3101 3105 3106 3106 3107 3110 3112 3115 3118 3121 3124 3126 3128 3130 3132 3135 3136 3139 3141 3142 3144 3146 3148 3149 3151 3152 3153 3154 3155 3157 3157 3157 3158 3157 3157 3157 3156 3156 3155 3154 3154 3153 3152 3151
3082 3086 3090 3092 3095 3098 3099 3099 3099 3101 3105 3107 3110 3113 3116 3119 3121 3123 3125 3127 3130 3133 3135 3137 3139 3140 3142 3144 3146 3147 3148 3149 3150 3152 3153 3154 3154 3154 3153 3153 3153 3152 3151 3151 3150 3149 3149 3148 3147
3081 3083 3087 3090 3094 3095 3095 3099 3095 3097 3096 3101 3105 3108 3111 3114 3116 3118 3120 3123 3125 3128 3131 3133 3134 3136 3138 3140 3142 3143 3144 3145 3147 3149 3149 3150 3150 3150 3150 3149 3149 3148 3148 3148 3147 3146 3145 3144 3143
3074 3080 3086 3089 3091 3091 3091 3094 3089 3088 3093 3096 3099 3102 3106 3108 3110 3112 3115 3117 3120 3123 3126 3129 3131 3133 3136 3137 3138 3139 3140 3143 3144 3145 3145 3145 3145 3145 3145 3145 3145 3145 3145 3144 3143 3142 3141 3140 3139
3068 3076 3084 3089 3089 3085 3084 3088 3084 3084 3086 3089 3092 3096 3100 3103 3105 3108 3111 3113 3115 3117 3120 3123 3126 3128 3130 3133 3134 3136 3138 3139 3140 3141 3142 3141 3141 3141 3141 3141 3141 3141 3141 3140 3139 3138 3137 3135 3133
3061 3065 3068 3072 3075 3077 3081 3077 3074 3078 3083 3084 3087 3091 3095 3097 3101 3104 3107 3109 3110 3112 3115 3118 3121 3124 3126 3128 3130 3132 3134 3135 3137 3137 3138 3138 3138 3138 3138 3138 3138 3137 3136 3136 3135 3133 3131 3130 3127
3058 3059 3068 3069 3070 3073 3069 3071 3072 3073 3077 3080 3083 3087 3090 3093 3096 3098 3101 3103 3105 3108 3111 3113 3116 3118 3121 3123 3125 3127 3129 3131 3132 3133 3133 3133 3133 3133 3133 3133 3133 3132 3131 3130 3128 3126 3123 3121 3117
3047 3058 3065 3063 3067 3066 3062 3065 3061 3065 3071 3073 3076 3081 3085 3088 3090 3093 3096 3099 3101 3104 3106 3108 3110 3113 3115 3118 3120 3123 3124 3125 3126 3127 3127 3128 3129 3129 3129 3129 3128 3127 3126 3124 3122 3119 3115 3112 3109
3043 3046 3053 3058 3057 3057 3057 3055 3057 3062 3064 3065 3070 3075 3078 3082 3085 3088 3090 3093 3095 3098 3101 3104 3106 3108 3111 3113 3115 3117 3119 3120 3121 3122 3122 3123 3124 3124 3124 3123 3122 3121 3118 3116 3113 3109 3106 3103 3099
3036 3039 3044 3047 3050 3053 3055 3053 3054 3056 3060 3062 3066 3069 3073 3077 3081 3083 3086 3087 3089 3093 3096 3098 3101 3103 3105 3107 3109 3111 3113 3114 3116 3117 3117 3118 3118 3118 3118 3117 3115 3113 3110 3106 3102 3100 3097 3093 3090